Meteo Giornale » Osservazioni meteo Stati Uniti (USA) » Watertown
ore: 14:17 - Osservazioni Meteo Watertown
Lat. 43° 59' N Lon. 76° 1' W Alt. 99 metri s.l.m.
24 °C
Coperto
Temp. 24 Ore
17 °C
24 °C
Nord-Est
11.1 Km/h
Dew point 20 °C
Umidità 78 %
Visibilità 10 Km
Il sole sorge alle ore 06:27
Il sole tramonta alle ore 19:40
| Data e Ora | Cielo e Fenomeni | T °C | DP °C | Um. % | Pres. hPa | Vis. km | Vento km/h | |
|---|---|---|---|---|---|---|---|---|
| Oggi h: 14:17 | Coperto | 24 | 20 | 78 | 1014 | 10 | NE 11.1 | |
| Oggi h: 14:07 | Coperto | 24 | 20 | 78 | 1014 | 10 | NE 13 | |
| Oggi h: 13:56 | Coperto | 24 | 20 | 78 | 1014 | 10 | E/NE 13 | |
| Oggi h: 12:56 | Coperto | 23 | 20 | 83 | 1014 | 10 | NE 18.5 | |
| Oggi h: 12:27 | Coperto | 23 | 21 | 88 | 1014 | 10 | E/NE 11.1 | |
| Oggi h: 11:56 | Coperto | 22 | 19 | 83 | 1014 | 10 | NE 13 | |
| Oggi h: 11:42 | Coperto | 22 | 19 | 83 | 1014 | 10 | E/NE 14.8 | |
| Oggi h: 11:09 | Coperto | 21 | 19 | 88 | 1014 | 10 | NE 13 | |
| Oggi h: 10:56 | Coperto | 21 | 19 | 88 | 1014 | 10 | N/NE 18.5 | |
| Oggi h: 10:39 | Coperto | 21 | 19 | 88 | 1014 | 10 | N/NE 14.8 | |
| Oggi h: 10:14 | Coperto | 22 | 20 | 88 | 1014 | 10 | N 11.1 | |
| Oggi h: 09:56 | Molto Nuvoloso | 22 | 19 | 83 | 1014 | 10 | N 0 | |
| Oggi h: 08:56 | Pioggia Foschia | 19 | 18 | 93 | 1013 | 8 | E 9.3 | |
| Oggi h: 08:47 | Pioggia Foschia | 18 | 18 | 100 | 1013 | 5 | S/SE 13 | |
| Oggi h: 08:38 | Pioggia Foschia | 18 | 18 | 100 | 1013 | 2 | SE 13 | |
| Oggi h: 08:31 | Pioggia Foschia | 18 | 18 | 100 | 1014 | 3 | E/NE 11.1 | |
| Oggi h: 08:20 | Pioggia Foschia | 18 | 18 | 100 | 1015 | 5 | N/NE 14.8 | |
| Oggi h: 08:05 | Pioggia Foschia | 19 | 18 | 93 | 1015 | 8 | N 7.4 | |
| Oggi h: 07:56 | Pioggia Foschia | 18 | 18 | 100 | 1015 | 5 | N 0 | |
| Oggi h: 07:52 | Pioggia Foschia | 18 | 18 | 100 | 1014 | 2 | N 0 | |
| Oggi h: 06:56 | Pioggia | 18 | 18 | 100 | 1014 | 11 | E 9.3 | |
| Oggi h: 05:56 | Pioggia | 18 | 18 | 100 | 1014 | 10 | N 5.5 | |
| Oggi h: 05:26 | Pioggia Foschia | 18 | 18 | 100 | 1014 | 10 | E 11.1 | |
| Oggi h: 05:03 | Pioggia Foschia | 18 | 18 | 100 | 1015 | 6 | E/NE 7.4 | |
| Oggi h: 04:56 | Pioggia Foschia | 18 | 18 | 100 | 1015 | 2 | E/NE 7.4 | |
| Oggi h: 03:56 | Pioggia Foschia | 18 | 18 | 100 | 1014 | 5 | E 7.4 | |
| Oggi h: 03:34 | Pioggia Foschia | 18 | 18 | 100 | 1015 | 6 | E 7.4 | |
| Oggi h: 03:21 | Pioggia Foschia | 18 | 17 | 93 | 1015 | 5 | NE 11.1 | |
| Oggi h: 03:06 | Pioggia Foschia | 18 | 17 | 93 | 1015 | 6 | N 5.5 | |
| Oggi h: 02:56 | Pioggia Foschia | 18 | 17 | 93 | 1015 | 8 | N 5.5 | |
| Oggi h: 01:56 | Pioggia | 18 | 17 | 93 | 1016 | 10 | N 5.5 | |
| Oggi h: 00:56 | Molto Nuvoloso | 18 | 17 | 93 | 1016 | 10 | E/NE 7.4 | |
| Ieri h: 23:56 | Coperto | 17 | 17 | 100 | 1016 | 10 | N 0 | |
| Ieri h: 22:56 | Nuvoloso | 18 | 17 | 93 | 1016 | 10 | N 0 | |
| Ieri h: 22:04 | Molto Nuvoloso | 19 | 17 | 88 | 1016 | 10 | N 0 | |
| Ieri h: 21:56 | Molto Nuvoloso | 19 | 17 | 88 | 1016 | 10 | N 0 | |
| Ieri h: 20:56 | Coperto | 21 | 17 | 77 | 1017 | 10 | N 0 | |
| Ieri h: 19:56 | Coperto | 21 | 17 | 77 | 1016 | 10 | N 0 | |
| Ieri h: 19:37 | Coperto | 21 | 17 | 77 | 1016 | 10 | N 0 | |
| Ieri h: 19:18 | Coperto | 21 | 17 | 77 | 1016 | 10 | N 5.5 | |
| Ieri h: 19:09 | Coperto | 22 | 17 | 73 | 1016 | 10 | SE 7.4 | |
| Ieri h: 18:56 | Coperto | 22 | 17 | 73 | 1017 | 10 | N 0 | |
| Ieri h: 17:56 | Coperto | 22 | 17 | 73 | 1017 | 10 | N 0 | |
| Ieri h: 16:56 | Coperto | 23 | 17 | 68 | 1017 | 10 | S 7.4 | |
| Ieri h: 15:56 | Coperto | 23 | 17 | 68 | 1017 | 10 | N 0 | |
| Ieri h: 14:56 | Coperto | 23 | 17 | 68 | 1018 | 10 | S 11.1 | |



